Goldsboro, NC

5:23 AM EDT on March 23, 2017 (GMT -0400)
Seymour Johnson Air Force Base

Weather History for KGSB - August, 2013

Change the Weather History Date:

Friday, August 16, 2013

  Actual Average Record
Temperature  
Mean Temperature 70 °F -  
Max Temperature 75 °F 87 °F 102 °F (1997)
Min Temperature 65 °F 68 °F 62 °F (1996)
Cooling Degree Days 6    
Growing Degree Days 20 (Base 50)    
Moisture  
Dew Point 64 °F    
Average Humidity 83    
Maximum Humidity 95    
Minimum Humidity 59    
Precipitation  
Precipitation 0.04 in - - ()
Sea Level Pressure  
Sea Level Pressure 30.11 in    
Wind  
Wind Speed 6 mph (NE)    
Max Wind Speed 10 mph    
Max Gust Speed -    
Visibility 10 miles    
Events Rain    
Averages and records for this station are not official NWS values.
T = Trace of Precipitation, MM = Missing Value Source: NWS Daily Summary

Daily Weather History Graph

Daily Weather History Graph

Search for Another Location

Airport or City:

Trip Planner

Search our weather history database for the weather conditions in past years. The results will help you decide how hot, cold, wet, or windy it might be!

Date:

Astronomy

Aug. 16, 2013 Rise Set
Actual Time 6:32 AM EDT 7:59 PM EDT
Civil Twilight 6:05 AM EDT 8:26 PM EDT
Nautical Twilight 5:33 AM EDT 8:58 PM EDT
Astronomical Twilight 4:59 AM EDT 9:31 PM EDT
Moon 4:12 PM EDT (8/16) 1:37 AM EDT (8/16)
Length of Visible Light 14h 20m
Length of Day
13h 26m
Waxing Gibbous, 74% of the Moon is Illuminated
Aug 16
Waxing Gibbous
Aug 20
Full
Aug 28
Last Quarter
Sep 5
New
Sep 12
First Quarter

Hourly Weather History & Observations

Time (EDT) Temp. Dew Point Humidity Pressure Visibility Wind Dir Wind Speed Gust Speed Precip Events Conditions
12:58 AM 69.1 °F 63.5 °F 82% 30.09 in 10.0 mi NNE 4.6 mph - N/A   Overcast
1:58 AM 68.4 °F 63.5 °F 84% 30.09 in 10.0 mi NNE 4.6 mph - N/A   Overcast
2:58 AM 68.0 °F 62.6 °F 83% 30.08 in 10.0 mi NNE 4.6 mph - N/A   Overcast
3:58 AM 67.5 °F 61.9 °F 82% 30.08 in 10.0 mi North 4.6 mph - N/A   Overcast
4:19 AM 68.0 °F 60.8 °F 78% 30.06 in 10.0 mi NE 6.9 mph - N/A   Overcast
4:49 AM 66.2 °F 60.8 °F 83% 30.06 in 10.0 mi NE 5.8 mph - N/A   Mostly Cloudy
4:58 AM 66.7 °F 61.2 °F 82% 30.07 in 10.0 mi NE 4.6 mph - N/A   Overcast
5:10 AM 66.2 °F 60.8 °F 83% 30.07 in 10.0 mi NE 5.8 mph - N/A   Overcast
5:31 AM 66.2 °F 60.8 °F 83% 30.08 in 10.0 mi NE 3.5 mph - N/A   Overcast
5:58 AM 66.7 °F 61.3 °F 83% 30.09 in 10.0 mi NNE 5.8 mph - N/A   Overcast
6:58 AM 66.2 °F 61.3 °F 84% 30.10 in 10.0 mi NNE 5.8 mph - N/A   Overcast
7:31 AM 66.2 °F 60.8 °F 83% 30.10 in 10.0 mi NNE 4.6 mph - N/A   Overcast
7:58 AM 66.2 °F 61.3 °F 84% 30.11 in 10.0 mi NNE 4.6 mph - N/A   Overcast
8:58 AM 68.2 °F 60.8 °F 77% 30.13 in 10.0 mi North 4.6 mph - N/A   Overcast
9:58 AM 71.4 °F 60.3 °F 68% 30.13 in 10.0 mi Variable 6.9 mph - N/A   Overcast
10:27 AM 73.4 °F 59.0 °F 61% 30.12 in 10.0 mi NNE 9.2 mph - N/A   Mostly Cloudy
10:58 AM 73.9 °F 59.5 °F 61% 30.14 in 10.0 mi ENE 8.1 mph - N/A   Overcast
11:58 AM 74.3 °F 59.0 °F 59% 30.13 in 10.0 mi NE 9.2 mph - N/A   Overcast
12:58 PM 75.2 °F 60.8 °F 61% 30.13 in 10.0 mi North 6.9 mph - N/A   Overcast
1:58 PM 75.4 °F 61.9 °F 63% 30.12 in 10.0 mi NE 6.9 mph - N/A   Mostly Cloudy
2:58 PM 74.5 °F 62.6 °F 66% 30.11 in 10.0 mi NNE 6.9 mph - N/A   Overcast
3:12 PM 73.4 °F 62.6 °F 69% 30.09 in 10.0 mi NE 9.2 mph - N/A Rain Light Rain
3:55 PM 71.6 °F 64.4 °F 78% 30.08 in 10.0 mi NE 10.4 mph - N/A   Clear
3:58 PM 71.8 °F 64.6 °F 78% 30.09 in 10.0 mi NE 9.2 mph - 0.00 in   Clear
4:11 PM 71.6 °F 64.4 °F 78% 30.08 in 10.0 mi NE 9.2 mph - N/A Rain Light Rain
4:24 PM 71.6 °F 64.4 °F 78% 30.08 in 10.0 mi Variable 4.6 mph - N/A   Clear
4:51 PM 71.6 °F 64.4 °F 78% 30.10 in 10.0 mi ESE 3.5 mph - N/A Rain Light Rain
4:58 PM 71.6 °F 64.4 °F 78% 30.12 in 10.0 mi SE 4.6 mph - 0.00 in Rain Light Rain
5:19 PM 69.8 °F 66.2 °F 88% 30.11 in 10.0 mi ESE 3.5 mph - N/A Rain Light Rain
5:21 PM 69.8 °F 66.2 °F 88% 30.11 in 10.0 mi ESE 5.8 mph - N/A   Overcast
5:23 PM 69.8 °F 66.2 °F 88% 30.10 in 10.0 mi East 5.8 mph - N/A Rain Light Rain
5:26 PM 69.8 °F 66.2 °F 88% 30.10 in 10.0 mi East 5.8 mph - N/A Rain Light Rain
5:56 PM 69.8 °F 68.0 °F 94% 30.10 in 10.0 mi ENE 4.6 mph - N/A Rain Light Rain
5:58 PM 69.3 °F 67.3 °F 93% 30.11 in 10.0 mi ENE 3.5 mph - 0.02 in Rain Light Rain
6:07 PM 69.8 °F 66.2 °F 88% 30.10 in 10.0 mi ENE 4.6 mph - N/A Rain Light Rain
6:22 PM 69.8 °F 68.0 °F 94% 30.10 in 10.0 mi ENE 4.6 mph - N/A   Partly Cloudy
6:24 PM 69.8 °F 68.0 °F 94% 30.10 in 10.0 mi ENE 4.6 mph - N/A Rain Light Rain
6:27 PM 69.8 °F 68.0 °F 94% 30.10 in 10.0 mi ENE 4.6 mph - N/A   Clear
6:29 PM 69.8 °F 68.0 °F 94% 30.10 in 10.0 mi NE 4.6 mph - N/A Rain Light Rain
6:44 PM 68.0 °F 66.2 °F 94% 30.09 in 10.0 mi NE 4.6 mph - N/A Rain Light Rain
6:50 PM 68.0 °F 66.2 °F 94% 30.09 in 10.0 mi ENE 6.9 mph - N/A Rain Light Rain
6:58 PM 68.4 °F 65.7 °F 91% 30.10 in 10.0 mi NE 6.9 mph - 0.02 in Rain Light Rain
6:59 PM 68.0 °F 64.4 °F 88% 30.09 in 10.0 mi NE 6.9 mph - N/A   Scattered Clouds
7:58 PM 68.2 °F 65.5 °F 91% 30.13 in 10.0 mi NNW 3.5 mph - 0.00 in   Overcast
8:11 PM 68.0 °F 66.2 °F 94% 30.13 in 10.0 mi NNW 5.8 mph - N/A Rain Light Rain
8:44 PM 68.0 °F 64.4 °F 88% 30.13 in 10.0 mi NE 4.6 mph - N/A   Overcast
8:58 PM 67.8 °F 65.3 °F 92% 30.14 in 10.0 mi NNE 4.6 mph - 0.00 in   Overcast
9:07 PM 68.0 °F 66.2 °F 94% 30.14 in 10.0 mi NNE 5.8 mph - N/A   Mostly Cloudy
9:13 PM 68.0 °F 66.2 °F 94% 30.14 in 10.0 mi North 4.6 mph - N/A   Mostly Cloudy
9:58 PM 67.6 °F 65.8 °F 94% 30.15 in 10.0 mi ENE 8.1 mph - N/A   Overcast
10:58 PM 66.4 °F 64.9 °F 95% 30.16 in 10.0 mi North 5.8 mph - N/A   Mostly Cloudy
11:58 PM 65.8 °F 63.5 °F 92% 30.16 in 10.0 mi NNE 4.6 mph - N/A   Mostly Cloudy